IRIDIUM 170 (43930 NORAD) Tracking and Keplerian Element Data

This shows tracking and keplerian element data for the satellite.

Feedback or suggestion? Click here.




ElementValue
Catalog43930
NameIRIDIUM 170
Epoch Orbit432
Epoch Day40.91641527
Epoch Year2019
RAAN35.3357
Inclination86.6093
Eccentricity0.000287
Argument of Perigee96.2272
Mean Anonmoly263.9272
Mean Motion14.7226001
Decay Rate4E-07
L11 43930U 19002J 19040.91641527 .00000040 00000-0 23898-5 0 9999
L22 43930 86.6093 35.3357 0002870 96.2272 263.9272 14.72260010 4327

Live tracking and technical data element details for IRIDIUM 170 (NORAD 43930). IRIDIUM 170 can be tracked NOW for your location showing map with azimuth and elevation plus other details from your city location.

Track the satellite on the map from your city or location and see movement details for azimuth, elevation, latitude, longitude, range, height, and movement on the map or in text.







IsCatalogInMostPopularTable: catalog: 43930, numindb: 25
Update: records affected: 1



GetName: 43930 IRIDIUM 170

Hit Count: updated at: Thu, 21 Feb 2019 12:34:27 GMT